FW8528 Weather Reports


Display with metric or nautical units.
time (UTC)temp
F
wind
direction
speed
MPH
gust
MPH
rain 1hr
in
rain 24hr
in
rain mn
in
humidity
%
barometer
mb
20260831013332 68 254 0.0 0.0 0.00 0.00 0.00 61 1017.6
20260831012826 68 227 0.0 1.0 0.00 0.00 0.00 59 1017.6
20260831012322 68 233 2.0 2.0 0.00 0.00 0.00 59 1017.2
20260831011822 69 94 2.0 2.0 0.00 0.00 0.00 59 1017.6
20260831011317 69 273 0.0 1.0 0.00 0.00 0.00 60 1017.6
20260831010813 70 207 1.0 1.0 0.00 0.00 0.00 60 1017.6
20260831010312 70 262 1.0 1.0 0.00 0.00 0.00 58 1017.6
20260831005808 70 244 0.0 0.0 0.00 0.00 0.00 58 1017.6
20260831005306 69 265 1.0 1.0 0.00 0.00 0.00 58 1017.6
20260831004758 69 228 0.0 1.0 0.00 0.00 0.00 60 1017.6
20260831004254 69 136 1.0 2.0 0.00 0.00 0.00 59 1017.6
20260831003749 69 208 1.0 1.0 0.00 0.00 0.00 59 1017.6
20260831003245 71 293 3.0 3.0 0.00 0.00 0.00 56 1017.6
20260831002744 70 218 0.0 0.0 0.00 0.00 0.00 58 1017.6
20260831002239 70 315 0.0 0.0 0.00 0.00 0.00 57 1017.9
20260831001735 70 254 0.0 0.0 0.00 0.00 0.00 56 1017.6
20260831001230 71 265 0.0 0.0 0.00 0.00 0.00 55 1017.9
20260831000727 70 346 1.0 1.0 0.00 0.00 0.00 57 1017.9
20260831000222 69 225 1.0 1.0 0.00 0.00 0.00 58 1017.9
20260830235721 69 291 0.0 1.0 0.00 0.00 0.00 57 1017.9
20260830235216 69 59 1.0 1.0 0.00 0.00 0.00 58 1017.9
20260830234710 70 243 0.0 0.0 0.00 0.00 0.00 57 1018.2
20260830234207 70 274 0.0 0.0 0.00 0.00 0.00 58 1017.9
20260830233702 69 130 2.0 2.0 0.00 0.00 0.00 60 1018.2
20260830233157 69 100 0.0 1.0 0.00 0.00 0.00 57 1018.2
20260830232653 70 23 2.0 2.0 0.00 0.00 0.00 57 1018.2
20260830232149 70 221 1.0 1.0 0.00 0.00 0.00 56 1018.2
20260830231645 70 250 0.0 0.0 0.00 0.00 0.00 55 1018.2
20260830231144 71 234 0.0 0.0 0.00 0.00 0.00 55 1018.2
20260830230639 71 245 0.0 0.0 0.00 0.00 0.00 55 1018.2
20260830230139 69 235 0.0 0.0 0.00 0.00 0.00 57 1018.6
20260830225634 70 206 1.0 1.0 0.00 0.00 0.00 58 1018.6
20260830225129 70 226 0.0 1.0 0.00 0.00 0.00 56 1018.6
20260830224627 70 254 0.0 0.0 0.00 0.00 0.00 58 1018.6
20260830224124 69 273 0.0 1.0 0.00 0.00 0.00 56 1018.6
20260830223621 70 277 1.0 1.0 0.00 0.00 0.00 55 1018.6
20260830223120 69 235 0.0 0.0 0.00 0.00 0.00 57 1018.6
20260830222615 70 294 1.0 1.0 0.00 0.00 0.00 57 1018.6
20260830222111 69 272 0.0 0.0 0.00 0.00 0.00 58 1018.9
20260830221606 69 50 1.0 1.0 0.00 0.00 0.00 57 1018.9
20260830221102 69 218 1.0 2.0 0.00 0.00 0.00 59 1018.9
20260830220557 69 239 0.0 1.0 0.00 0.00 0.00 59 1018.6
20260830220055 68 117 2.0 2.0 0.00 0.00 0.00 61 1018.9
20260830215555 69 108 1.0 2.0 0.00 0.00 0.00 58 1018.9
20260830215050 69 239 0.0 1.0 0.00 0.00 0.00 57 1018.9
20260830214545 69 272 1.0 1.0 0.00 0.00 0.00 56 1018.9
20260830214040 69 237 3.0 3.0 0.00 0.00 0.00 57 1019.3
20260830213539 68 146 2.0 3.0 0.00 0.00 0.00 58 1019.3
20260830213035 69 201 1.0 1.0 0.00 0.00 0.00 57 1019.3
20260830212531 68 242 0.0 0.0 0.00 0.00 0.00 58 1019.3
20260830212026 68 245 1.0 1.0 0.00 0.00 0.00 58 1019.3
20260830211521 68 288 0.0 1.0 0.00 0.00 0.00 58 1019.6
20260830211020 67 199 3.0 3.0 0.00 0.00 0.00 58 1019.3
20260830210520 68 119 1.0 3.0 0.00 0.00 0.00 59 1019.3
20260830210015 69 210 4.0 5.0 0.00 0.00 0.00 57 1019.3
20260830205512 68 283 1.0 2.0 0.00 0.00 0.00 57 1019.6
20260830205008 68 248 0.0 1.0 0.00 0.00 0.00 58 1019.3
20260830204507 68 210 2.0 2.0 0.00 0.00 0.00 58 1019.3
20260830204001 67 220 1.0 1.0 0.00 0.00 0.00 60 1019.6
20260830203458 67 222 0.0 0.0 0.00 0.00 0.00 61 1019.3
20260830202957 67 281 0.0 0.0 0.00 0.00 0.00 60 1019.3
20260830202452 66 212 0.0 0.0 0.00 0.00 0.00 62 1019.6
20260830201948 66 228 1.0 1.0 0.00 0.00 0.00 63 1019.6
20260830201447 67 200 2.0 2.0 0.00 0.00 0.00 63 1019.3
20260830200943 66 270 0.0 0.0 0.00 0.00 0.00 64 1019.6
20260830200442 66 223 1.0 1.0 0.00 0.00 0.00 66 1019.3
20260830195937 65 205 1.0 1.0 0.00 0.00 0.00 68 1019.6
20260830195433 65 206 1.0 2.0 0.00 0.00 0.00 68 1019.6
20260830194931 65 155 2.0 2.0 0.00 0.00 0.00 67 1019.6
20260830194430 66 207 3.0 3.0 0.00 0.00 0.00 66 1019.6
20260830193930 67 176 2.0 2.0 0.00 0.00 0.00 65 1019.6
20260830193429 66 292 0.0 1.0 0.00 0.00 0.00 66 1019.3
20260830192925 67 159 2.0 2.0 0.00 0.00 0.00 66 1019.3
20260830192420 67 258 0.0 0.0 0.00 0.00 0.00 67 1019.3
20260830191915 66 70 2.0 3.0 0.00 0.00 0.00 69 1019.6
20260830191415 69 195 2.0 2.0 0.00 0.00 0.00 63 1019.6
20260830190910 68 274 1.0 1.0 0.00 0.00 0.00 65 1019.6
20260830190405 66 264 1.0 1.0 0.00 0.00 0.00 66 1019.6
20260830185904 65 208 2.0 2.0 0.00 0.00 0.00 67 1019.6
20260830185359 65 155 0.0 0.0 0.00 0.00 0.00 68 1019.6
20260830184854 65 295 1.0 1.0 0.00 0.00 0.00 68 1019.9
20260830184353 67 285 1.0 2.0 0.00 0.00 0.00 66 1019.9
20260830183848 69 213 1.0 2.0 0.00 0.00 0.00 64 1019.9
20260830183343 67 221 0.0 1.0 0.00 0.00 0.00 67 1019.6
20260830182838 67 245 2.0 3.0 0.00 0.00 0.00 68 1019.9
20260830182334 68 236 1.0 2.0 0.00 0.00 0.00 66 1019.9
20260830181830 66 264 0.0 1.0 0.00 0.00 0.00 70 1019.6
20260830181325 67 195 4.0 6.0 0.00 0.00 0.00 70 1019.6
20260830180824 65 246 0.0 0.0 0.00 0.00 0.00 69 1019.6
20260830180319 66 160 3.0 3.0 0.00 0.00 0.00 70 1019.6
20260830175818 64 279 1.0 1.0 0.00 0.00 0.00 71 1019.6
20260830175313 63 192 1.0 3.0 0.00 0.00 0.00 75 1019.6
20260830174808 62 207 0.0 1.0 0.00 0.00 0.00 77 1019.3
20260830174304 61 147 2.0 2.0 0.00 0.00 0.00 77 1019.6
20260830173803 61 292 1.0 1.0 0.00 0.00 0.00 78 1019.6
20260830173259 62 186 0.0 2.0 0.00 0.00 0.00 79 1019.6
20260830172755 61 223 0.0 0.0 0.00 0.00 0.00 79 1019.6
20260830172252 61 189 2.0 3.0 0.00 0.00 0.00 79 1019.6
20260830171747 61 256 1.0 1.0 0.00 0.00 0.00 79 1019.6
20260830171242 60 212 1.0 1.0 0.00 0.00 0.00 81 1019.6
20260830170737 60 226 2.0 2.0 0.00 0.00 0.00 81 1019.6
20260830170236 60 291 1.0 1.0 0.00 0.00 0.00 80 1019.6
20260830165735 59 246 0.0 0.0 0.00 0.00 0.00 84 1019.6
20260830165231 59 231 0.0 1.0 0.00 0.00 0.00 85 1019.6
20260830164727 58 266 0.0 0.0 0.00 0.00 0.00 86 1019.6
20260830164223 58 229 0.0 0.0 0.00 0.00 0.00 87 1019.6
20260830163720 58 192 1.0 1.0 0.00 0.00 0.00 87 1019.9
20260830163215 59 231 0.0 0.0 0.00 0.00 0.00 86 1019.6
20260830162709 59 282 0.0 1.0 0.00 0.00 0.00 87 1019.6
20260830162205 57 345 2.0 2.0 0.00 0.00 0.00 89 1019.9
20260830161700 57 218 1.0 2.0 0.00 0.00 0.00 91 1019.9
20260830161154 56 232 0.0 0.0 0.00 0.00 0.00 92 1019.9
20260830160651 57 236 0.0 1.0 0.00 0.00 0.00 92 1019.9
20260830160145 56 204 1.0 2.0 0.00 0.00 0.00 92 1019.9
20260830155642 56 238 0.0 0.0 0.00 0.00 0.00 93 1019.6
20260830155137 56 232 0.0 0.0 0.00 0.00 0.00 93 1019.9
20260830154632 56 231 0.0 0.0 0.00 0.00 0.00 94 1019.9
20260830154128 56 281 0.0 0.0 0.00 0.00 0.00 94 1019.9
20260830153625 56 246 0.0 1.0 0.00 0.00 0.00 94 1020.4
20260830153124 55 225 0.0 0.0 0.00 0.00 0.00 95 1019.9
20260830152623 55 162 1.0 1.0 0.00 0.00 0.00 96 1019.9
20260830152122 55 236 0.0 0.0 0.00 0.00 0.00 96 1019.9
20260830151618 55 239 0.0 0.0 0.00 0.00 0.00 96 1019.9
20260830151113 55 175 0.0 1.0 0.00 0.00 0.00 95 1019.9
20260830150612 55 264 0.0 0.0 0.00 0.00 0.00 95 1020.4
20260830150107 55 278 0.0 0.0 0.00 0.00 0.00 95 1020.4
20260830145606 55 268 0.0 0.0 0.00 0.00 0.00 95 1019.9
20260830145101 55 206 1.0 1.0 0.00 0.00 0.00 95 1019.9
20260830144557 55 242 0.0 0.0 0.00 0.00 0.00 95 1019.6
20260830144053 55 271 0.0 1.0 0.00 0.00 0.00 95 1019.9
20260830143549 55 238 0.0 0.0 0.00 0.00 0.00 95 1019.9
20260830143047 55 235 0.0 0.0 0.00 0.00 0.00 95 1019.6
20260830142542 55 236 0.0 0.0 0.00 0.00 0.00 96 1019.6
20260830142037 55 234 0.0 0.0 0.00 0.00 0.00 97 1019.6
20260830141532 54 234 0.0 0.0 0.00 0.00 0.00 97 1019.6
20260830141027 54 233 0.0 0.0 0.00 0.00 0.00 97 1019.6
20260830140526 54 233 0.0 0.0 0.00 0.00 0.00 97 1019.3
20260830140023 54 233 0.0 0.0 0.00 0.00 0.00 97 1019.3
20260830135512 54 233 0.0 0.0 0.00 0.00 0.00 98 1019.3
20260830135007 54 233 0.0 0.0 0.00 0.00 0.00 97 1019.6
20260830134502 53 233 0.0 0.0 0.00 0.00 0.00 98 1019.3
20260830133957 53 233 0.0 0.0 0.00 0.00 0.00 98 1019.3
20260830133453 53 233 0.0 0.0 0.00 0.00 0.00 98 1019.3
20260830132948 53 233 0.0 0.0 0.00 0.00 0.00 98 1019.3
20260830132444 53 233 0.0 0.0 0.00 0.00 0.00 98 1018.9
20260830131943 53 233 0.0 0.0 0.00 0.00 0.00 98 1019.3
20260830131437 53 233 0.0 0.0 0.00 0.00 0.00 98 1019.3
20260830130932 53 233 0.0 0.0 0.00 0.00 0.00 97 1018.9
20260830130428 53 233 0.0 0.0 0.00 0.00 0.00 97 1019.3
20260830125926 53 233 0.0 0.0 0.00 0.00 0.00 97 1019.3
20260830125422 53 233 0.0 0.0 0.00 0.00 0.00 97 1019.3
20260830124920 53 233 0.0 0.0 0.00 0.00 0.00 97 1019.3
20260830124415 54 233 0.0 0.0 0.00 0.00 0.00 97 1019.3
20260830123912 54 233 0.0 0.0 0.00 0.00 0.00 97 1019.3
20260830123408 54 233 0.0 0.0 0.00 0.00 0.00 97 1019.3
20260830122906 54 233 0.0 0.0 0.00 0.00 0.00 97 1018.9
20260830122400 54 233 0.0 0.0 0.00 0.00 0.00 97 1018.9
20260830121855 54 233 0.0 0.0 0.00 0.00 0.00 97 1019.3
20260830121355 54 233 0.0 0.0 0.00 0.00 0.00 97 1019.3
20260830120850 54 233 0.0 0.0 0.00 0.00 0.00 97 1019.3
20260830120346 54 232 0.0 0.0 0.00 0.00 0.00 97 1019.3
20260830115842 54 232 0.0 0.0 0.00 0.00 0.00 97 1019.3
20260830115338 54 233 0.0 0.0 0.00 0.00 0.00 97 1019.3
20260830114833 54 233 0.0 0.0 0.00 0.00 0.00 98 1019.3
20260830114330 54 233 0.0 0.0 0.00 0.00 0.00 97 1019.3
20260830113824 54 233 0.0 0.0 0.00 0.00 0.00 97 1019.3
20260830113319 54 233 0.0 0.0 0.00 0.00 0.00 97 1019.3
20260830112815 54 233 0.0 0.0 0.00 0.00 0.00 97 1019.3
20260830112311 54 233 0.0 0.0 0.00 0.00 0.00 96 1018.9
20260830111807 55 233 0.0 0.0 0.00 0.00 0.00 96 1019.3
20260830111302 55 233 0.0 0.0 0.00 0.00 0.00 96 1018.9
20260830110802 55 233 0.0 0.0 0.00 0.00 0.00 95 1019.3
20260830110259 55 233 0.0 0.0 0.00 0.00 0.00 95 1018.9
20260830105757 55 233 0.0 0.0 0.00 0.00 0.00 95 1019.3
20260830105254 55 232 0.0 0.0 0.00 0.00 0.00 95 1018.9
20260830104750 55 233 0.0 0.0 0.00 0.00 0.00 95 1018.9
20260830104247 55 232 0.0 0.0 0.00 0.00 0.00 95 1018.9
20260830103745 55 232 0.0 0.0 0.00 0.00 0.00 95 1019.3
20260830103242 55 232 0.0 0.0 0.00 0.00 0.00 95 1019.3
20260830102739 55 232 0.0 0.0 0.00 0.00 0.00 95 1018.9
20260830102235 55 233 0.0 0.0 0.00 0.00 0.00 95 1018.9
20260830101731 55 233 0.0 0.0 0.00 0.00 0.00 95 1018.9
20260830101227 55 233 0.0 0.0 0.00 0.00 0.00 95 1018.9
20260830100720 55 233 0.0 0.0 0.00 0.00 0.00 95 1018.9
20260830100214 55 233 0.0 0.0 0.00 0.00 0.00 94 1018.9
20260830095713 55 233 0.0 0.0 0.00 0.00 0.00 94 1018.9
20260830095210 55 233 0.0 0.0 0.00 0.00 0.00 94 1018.9
20260830094705 55 233 0.0 0.0 0.00 0.00 0.00 94 1018.9
20260830094201 55 233 0.0 0.0 0.00 0.00 0.00 94 1018.9
20260830093656 55 233 0.0 0.0 0.00 0.00 0.00 95 1019.3
20260830093152 55 233 0.0 0.0 0.00 0.00 0.00 94 1018.9
20260830092652 55 233 0.0 0.0 0.00 0.00 0.00 94 1018.9
20260830092149 55 233 0.0 0.0 0.00 0.00 0.00 94 1018.9
20260830091644 55 233 0.0 0.0 0.00 0.00 0.00 94 1018.9
20260830091143 55 233 0.0 0.0 0.00 0.00 0.00 94 1018.9
20260830090638 55 233 0.0 0.0 0.00 0.00 0.00 94 1018.9
20260830090133 55 233 0.0 0.0 0.00 0.00 0.00 94 1018.9
20260830085632 55 233 0.0 0.0 0.00 0.00 0.00 95 1018.9
20260830085129 55 233 0.0 0.0 0.00 0.00 0.00 94 1018.9
20260830084624 55 233 0.0 0.0 0.00 0.00 0.00 94 1018.9
20260830084119 55 233 0.0 0.0 0.00 0.00 0.00 95 1018.9
20260830083614 55 233 0.0 0.0 0.00 0.00 0.00 94 1018.9
20260830083114 55 233 0.0 0.0 0.00 0.00 0.00 94 1018.9
20260830082609 55 233 0.0 0.0 0.00 0.00 0.00 94 1018.9
20260830082105 55 233 0.0 0.0 0.00 0.00 0.00 94 1018.9
20260830081601 55 233 0.0 0.0 0.00 0.00 0.00 94 1018.9
20260830081059 55 233 0.0 0.0 0.00 0.00 0.00 94 1018.9
20260830080554 55 233 0.0 0.0 0.00 0.00 0.00 93 1018.9
20260830080049 55 233 0.0 0.0 0.00 0.00 0.00 93 1018.9
20260830075544 55 233 0.0 0.0 0.00 0.00 0.00 93 1018.9
20260830075039 55 233 0.0 0.0 0.00 0.00 0.00 93 1018.9
20260830074536 55 233 0.0 0.0 0.00 0.00 0.00 94 1019.3
20260830074031 55 233 0.0 0.0 0.00 0.00 0.00 94 1018.9
20260830073527 55 233 0.0 0.0 0.00 0.00 0.00 93 1018.6
20260830073022 55 233 0.0 0.0 0.00 0.00 0.00 93 1018.6
20260830072517 55 233 0.0 0.0 0.00 0.00 0.00 93 1018.9
20260830072017 55 233 0.0 0.0 0.00 0.00 0.00 93 1018.6
20260830071513 55 233 0.0 0.0 0.00 0.00 0.00 93 1018.6
20260830071010 55 233 0.0 0.0 0.00 0.00 0.00 93 1018.9
20260830070506 55 233 0.0 0.0 0.00 0.00 0.00 93 1018.6
20260830070005 55 233 0.0 0.0 0.00 0.01 0.01 93 1018.6
20260830065504 55 233 0.0 0.0 0.00 0.01 0.01 93 1018.6
20260830065002 55 233 0.0 0.0 0.00 0.01 0.01 92 1018.6
20260830064458 55 233 0.0 0.0 0.00 0.01 0.01 92 1018.6
20260830063953 55 233 0.0 0.0 0.00 0.01 0.01 92 1018.9
20260830063452 55 232 0.0 0.0 0.00 0.01 0.01 92 1018.6
20260830062951 55 233 0.0 0.0 0.00 0.01 0.01 91 1018.6
20260830062451 55 232 0.0 0.0 0.00 0.01 0.01 92 1018.6
20260830061946 55 232 0.0 0.0 0.00 0.01 0.01 92 1018.9
20260830061441 55 233 0.0 0.0 0.00 0.01 0.01 92 1018.9
20260830060937 55 232 0.0 0.0 0.00 0.01 0.01 93 1018.9
20260830060434 55 233 0.0 0.0 0.00 0.01 0.01 92 1019.3
20260830055929 55 232 0.0 0.0 0.00 0.01 0.01 92 1018.9
20260830055425 55 232 0.0 0.0 0.00 0.01 0.01 93 1018.9
20260830054920 55 232 0.0 0.0 0.00 0.01 0.01 93 1018.6
20260830054416 54 232 0.0 0.0 0.00 0.01 0.01 93 1018.9
20260830053911 54 232 0.0 0.0 0.00 0.01 0.01 92 1018.6
20260830053407 54 232 0.0 0.0 0.00 0.01 0.01 92 1018.6
20260830052906 54 232 0.0 0.0 0.00 0.01 0.01 92 1018.9
20260830052401 54 232 0.0 0.0 0.00 0.01 0.01 92 1018.6
20260830051856 53 232 0.0 0.0 0.00 0.01 0.01 93 1018.6
20260830051352 53 232 0.0 0.0 0.00 0.01 0.01 93 1018.6
20260830050850 53 232 0.0 0.0 0.00 0.01 0.01 93 1018.6
20260830050346 53 232 0.0 0.0 0.00 0.01 0.01 94 1018.6
20260830045844 53 232 0.0 0.0 0.00 0.01 0.01 94 1018.6
20260830045339 53 232 0.0 0.0 0.00 0.01 0.01 94 1018.6
20260830044838 53 232 0.0 0.0 0.00 0.01 0.01 94 1018.6
20260830044335 53 232 0.0 0.0 0.00 0.01 0.01 94 1018.6
20260830043829 53 232 0.0 0.0 0.00 0.01 0.01 93 1018.6
20260830043324 53 232 0.0 0.0 0.00 0.01 0.01 92 1018.6
20260830042821 53 232 0.0 0.0 0.00 0.01 0.01 92 1018.2
20260830042316 53 232 0.0 0.0 0.00 0.01 0.01 92 1018.6
20260830041814 53 231 0.0 0.0 0.00 0.01 0.01 93 1018.2
20260830041308 53 231 0.0 0.0 0.00 0.01 0.01 93 1018.6
20260830040804 54 231 0.0 0.0 0.00 0.01 0.01 93 1018.2
20260830040301 54 231 0.0 0.0 0.00 0.01 0.01 92 1018.2
20260830035758 54 231 0.0 0.0 0.00 0.01 0.01 92 1017.9
20260830035253 54 231 0.0 0.0 0.00 0.01 0.01 91 1017.9
20260830034749 55 231 0.0 0.0 0.00 0.01 0.01 91 1018.2
20260830034248 55 231 0.0 0.0 0.00 0.01 0.01 91 1017.9
20260830033745 55 231 0.0 0.0 0.00 0.01 0.01 91 1017.9
20260830033244 55 231 0.0 0.0 0.00 0.01 0.01 90 1017.9
20260830032739 56 231 0.0 0.0 0.00 0.01 0.01 89 1017.9
20260830032233 56 231 0.0 0.0 0.00 0.01 0.01 88 1017.6
20260830031729 56 230 0.0 0.0 0.00 0.01 0.01 89 1017.6
20260830031224 57 230 0.0 0.0 0.00 0.01 0.01 88 1017.6
20260830030719 57 230 0.0 0.0 0.00 0.01 0.01 87 1017.6
20260830030215 58 230 0.0 0.0 0.00 0.01 0.01 85 1017.6
20260830025714 58 229 0.0 0.0 0.00 0.01 0.01 85 1017.6
20260830025208 58 228 0.0 0.0 0.00 0.01 0.01 84 1017.6
20260830024708 59 228 0.0 0.0 0.00 0.01 0.01 82 1017.6
20260830024203 59 228 0.0 0.0 0.00 0.01 0.01 81 1017.2
20260830023700 60 228 0.0 0.0 0.00 0.01 0.01 80 1017.6
20260830023154 60 228 0.0 0.0 0.00 0.01 0.01 78 1017.6
20260830022649 61 242 0.0 0.0 0.00 0.01 0.01 74 1017.2
20260830022144 61 276 0.0 0.0 0.00 0.01 0.01 73 1017.6
20260830021644 62 225 0.0 0.0 0.00 0.01 0.01 73 1017.6
20260830021139 63 233 0.0 0.0 0.00 0.01 0.01 70 1017.2
20260830020638 63 216 0.0 1.0 0.00 0.01 0.01 66 1017.2
20260830020134 63 292 2.0 2.0 0.00 0.01 0.01 66 1017.2
20260830015633 64 49 1.0 2.0 0.00 0.01 0.01 66 1017.2
20260830015129 64 176 1.0 1.0 0.00 0.01 0.01 66 1017.2
20260830014624 64 291 1.0 1.0 0.00 0.01 0.01 65 1016.9
20260830014121 64 269 0.0 1.0 0.00 0.01 0.01 64 1016.9
20260830013620 65 43 2.0 2.0 0.00 0.01 0.01 62 1016.9